Time,TemperatureF,DewpointF,PressureIn,WindDirection,WindDirectionDegrees,WindSpeedMPH,WindSpeedGustMPH,Humidity,HourlyPrecipIn,Conditions,Clouds,dailyrainin,SoftwareType,DateUTC
2013-01-04 00:03:00,33.0,21.0,-100.00,NE,40,3.0,9.0,61,0.00,,,-99.99,,2013-01-04 05:03:00,
2013-01-04 00:12:00,33.0,21.0,-100.00,North,0,1.0,5.0,61,0.00,,,-99.99,,2013-01-04 05:12:00,
2013-01-04 00:22:00,33.0,21.0,-100.00,NNE,20,1.0,5.0,61,0.00,,,-99.99,,2013-01-04 05:22:00,
2013-01-04 00:33:00,33.0,21.0,-100.00,North,0,4.0,7.0,61,0.00,,,-99.99,,2013-01-04 05:33:00,
2013-01-04 00:42:00,33.0,21.0,-100.00,North,0,3.0,6.0,62,0.00,,,-99.99,,2013-01-04 05:42:00,
2013-01-04 00:52:00,33.0,21.0,-100.00,North,350,1.0,7.0,63,0.00,,,-99.99,,2013-01-04 05:52:00,
2013-01-04 01:02:00,33.0,21.0,-100.00,North,350,2.0,5.0,63,0.00,,,-99.99,,2013-01-04 06:02:00,
2013-01-04 01:12:00,32.0,22.0,-100.00,NNW,330,4.0,7.0,64,0.00,,,-99.99,,2013-01-04 06:12:00,
2013-01-04 01:22:00,32.0,22.0,-100.00,NNW,335,4.0,7.0,64,0.00,,,-99.99,,2013-01-04 06:22:00,
2013-01-04 01:33:00,32.0,22.0,-100.00,North,5,2.0,6.0,65,0.00,,,-99.99,,2013-01-04 06:33:00,
2013-01-04 01:42:00,32.0,22.0,-100.00,NW,325,3.0,7.0,65,0.00,,,-99.99,,2013-01-04 06:42:00,
2013-01-04 01:52:00,32.0,22.0,-100.00,North,5,3.0,6.0,66,0.00,,,-99.99,,2013-01-04 06:52:00,
2013-01-04 02:02:00,32.0,22.0,-100.00,NNW,330,2.0,7.0,66,0.00,,,-99.99,,2013-01-04 07:02:00,
2013-01-04 02:12:00,32.0,22.0,-100.00,NW,310,4.0,8.0,67,0.00,,,-99.99,,2013-01-04 07:12:00,
2013-01-04 02:22:00,32.0,23.0,-100.00,NNW,335,4.0,9.0,67,0.00,,,-99.99,,2013-01-04 07:22:00,
2013-01-04 02:32:00,32.0,23.0,-100.00,North,0,4.0,9.0,68,0.00,,,-99.99,,2013-01-04 07:32:00,
2013-01-04 02:42:00,32.0,23.0,-100.00,NNW,345,3.0,11.0,68,0.00,,,-99.99,,2013-01-04 07:42:00,
2013-01-04 02:52:00,32.0,23.0,-100.00,NNW,345,2.0,7.0,69,0.00,,,-99.99,,2013-01-04 07:52:00,
2013-01-04 03:02:00,32.0,23.0,-100.00,NW,320,6.0,11.0,68,0.00,,,-99.99,,2013-01-04 08:02:00,
2013-01-04 03:12:00,32.0,23.0,-100.00,North,0,4.0,9.0,67,0.00,,,-99.99,,2013-01-04 08:12:00,
2013-01-04 03:22:00,32.0,22.0,-100.00,North,0,7.0,12.0,66,0.00,,,-99.99,,2013-01-04 08:22:00,
2013-01-04 03:32:00,32.0,22.0,-100.00,NNE,30,4.0,11.0,66,0.00,,,-99.99,,2013-01-04 08:32:00,
2013-01-04 03:42:00,32.0,22.0,-100.00,North,0,4.0,12.0,65,0.00,,,-99.99,,2013-01-04 08:42:00,
2013-01-04 03:52:00,32.0,22.0,-100.00,North,5,7.0,13.0,65,0.00,,,-99.99,,2013-01-04 08:52:00,
2013-01-04 04:02:00,32.0,22.0,-100.00,North,0,4.0,11.0,64,0.00,,,-99.99,,2013-01-04 09:02:00,